{"data":{"norad_id":63939,"intl_designator":"2025-098P","name":"STARLINK-34020","alt_names":[],"object_type":"PAYLOAD","status":"ACTIVE","operator":null,"country":"US","launch_date":"2025-05-13","launch_site_code":"AFWTR","launch_vehicle":null,"mission":null,"orbit_class":"UNKNOWN","rcs_meters":null,"size_class":null,"mass_kg":null,"dimensions":null,"purposes":["comms"],"wikipedia_slug":null,"has_3d_model":false,"image_url":null,"decayed_at":null,"tle_current":{"epoch":"2026-09-20T08:45:54.525888Z","epoch_age_seconds":158773,"freshness":"FRESH","line1":"1 63939U 25098P   26263.36521442  .00008660  00000+0  30527-3 0  9999","line2":"2 63939  69.9991 141.1900 0003787 273.4491  86.6251 15.29586437 75770","mean_motion":15.29586437,"eccentricity":0.0003787,"inclination_deg":69.9991,"raan_deg":141.19,"arg_perigee_deg":273.4491,"mean_anomaly_deg":86.6251,"bstar":0.00030527,"rev_number":7577,"period_min":94.143094183307,"perigee_km":474.45161186788,"apogee_km":479.64372873716,"semimajor_km":6855.1846703025,"source":"CELESTRAK","updated_at":"2026-09-21T09:00:35.151543Z"}}}